Powrót do katalogu

FENGYUN 1C DEB

LostSSO
NORAD 32220·DEBRIS·🇨🇳 China

Wystrzelony May 10, 1999 z Taiyuan Satellite Launch Center

Loading…

Następne Przeloty (najbliższe 24 godziny)

TLE

NieaktualneSource: Space-Track

Epoka: Nov 17, 2014, 00:57 UTC

1 32220U 99025CVS 14321.03979087  .00001588  00000-0  10801-2 0  9992
2 32220  99.2673 257.6674 0228324  31.3800 330.0753 13.89663064369803

Śledź FENGYUN 1C DEB w czasie rzeczywistym z AllMySat

Download on the App Store